Location: Oshawa
(43.9000°N, 78.8670°W)
Time: 07:55:15
(UTC-04:00)

CARTOSAT-1 - Visible Passes

Search period start: 27 March 2015 00:00
Search period end: 06 April 2015 00:00
Orbit: 616 x 620 km, 97.8° (Epoch: 27 March)

Date Brightness Start Highest point End Pass type
(mag) Time Alt. Az. Time Alt. Az. Time Alt. Az.
27 Mar 5.8 22:36:09 19° N 22:36:09 19° N 22:37:28 10° N visible
28 Mar 5.8 22:52:59 20° N 22:52:59 20° N 22:54:21 10° N visible
29 Mar 6.0 23:09:48 20° NNW 23:09:48 20° NNW 23:11:08 10° NNW visible
30 Mar 5.8 21:49:30 13° NE 21:49:30 13° NE 21:50:25 10° NNE visible
30 Mar 6.1 23:26:37 18° NNW 23:26:37 18° NNW 23:27:49 10° NNW visible
31 Mar 5.7 22:06:19 17° NNE 22:06:19 17° NNE 22:07:47 10° NNE visible
31 Mar 6.4 23:43:26 16° NW 23:43:26 16° NW 23:44:23 10° NNW visible
01 Apr 5.5 22:23:08 21° NNE 22:23:08 21° NNE 22:24:54 10° N visible
02 Apr 6.6 00:00:14 13° NW 00:00:14 13° NW 00:00:46 10° NW visible
02 Apr 5.4 22:39:56 24° NNE 22:39:56 24° NNE 22:41:52 10° N visible
03 Apr 5.4 22:56:45 26° N 22:56:45 26° N 22:58:42 10° N visible
04 Apr 5.9 21:36:26 11° NE 21:36:26 11° NE 21:37:08 10° NE visible
04 Apr 5.6 23:13:33 25° NNW 23:13:33 25° NNW 23:15:26 10° NNW visible
05 Apr 5.6 21:53:14 15° NE 21:53:14 15° NE 21:54:54 10° NNE visible
05 Apr 5.8 23:30:21 23° NNW 23:30:21 23° NNW 23:32:05 10° NNW visible
